RYR9681 EYKA-EVRA

Flight info

Callsign RYR9681
Flight time 0h 37m
Altitude 22000
Route UGNIS DCT GUNTA
Aircraft B38M/M-SDE1FGHILORVWXY/HB1

Departure

Time 2026-05-04 15:27
Airport Kaunas International Airport (EYKA)

Arrival

Time 2026-05-04 16:04
Airport Riga International Airport (EVRA)
Time Latitude Longitude Altitude Speed Heading
2026-05-04 14:29 54.96627 24.07398 270 ft 0 kts 104°
2026-05-04 15:18 54.96626 24.07404 270 ft 2 kts 104°
2026-05-04 15:18 54.96623 24.07428 270 ft 1 kts 104°
2026-05-04 15:18 54.96614 24.07456 270 ft 4 kts 131°
2026-05-04 15:19 54.96527 24.07490 270 ft 7 kts 163°
2026-05-04 15:19 54.96505 24.07550 270 ft 7 kts 97°
2026-05-04 15:19 54.96515 24.07795 270 ft 13 kts 85°
2026-05-04 15:20 54.96524 24.07964 270 ft 10 kts 83°
2026-05-04 15:20 54.96543 24.08097 270 ft 13 kts 73°
2026-05-04 15:20 54.96565 24.08244 270 ft 13 kts 82°
2026-05-04 15:20 54.96573 24.08415 270 ft 16 kts 85°
2026-05-04 15:21 54.96583 24.08622 270 ft 19 kts 85°
2026-05-04 15:21 54.96595 24.08863 270 ft 21 kts 85°
2026-05-04 15:21 54.96621 24.09426 271 ft 19 kts 85°
2026-05-04 15:22 54.96627 24.09571 270 ft 9 kts 96°
2026-05-04 15:22 54.96581 24.09652 270 ft 11 kts 168°
2026-05-04 15:22 54.96454 24.09712 270 ft 9 kts 117°
2026-05-04 15:23 54.96451 24.09828 270 ft 11 kts 85°
2026-05-04 15:23 54.96458 24.09968 271 ft 13 kts 85°
2026-05-04 15:23 54.96467 24.10148 273 ft 18 kts 85°
2026-05-04 15:23 54.96480 24.10413 271 ft 26 kts 85°
2026-05-04 15:24 54.96545 24.10843 270 ft 13 kts 56°
2026-05-04 15:24 54.96516 24.10989 270 ft 8 kts 201°
2026-05-04 15:25 54.96503 24.10899 270 ft 9 kts 275°
2026-05-04 15:25 54.96499 24.10780 270 ft 11 kts 264°
2026-05-04 15:25 54.96493 24.10657 271 ft 10 kts 265°
2026-05-04 15:26 54.96477 24.10339 272 ft 24 kts 264°
2026-05-04 15:26 54.96446 24.09701 270 ft 86 kts 265°
2026-05-04 15:26 54.96288 24.06365 597 ft 169 kts 267°
2026-05-04 15:27 54.96193 24.04277 1359 ft 176 kts 265°
2026-05-04 15:27 54.95988 23.99990 2804 ft 189 kts 264°
2026-05-04 15:28 54.95737 23.95055 3815 ft 222 kts 264°
2026-05-04 15:28 54.95856 23.92287 4249 ft 242 kts 287°
2026-05-04 15:28 54.98602 23.88591 5613 ft 274 kts 347°
2026-05-04 15:29 55.00523 23.88399 6356 ft 279 kts 349°
2026-05-04 15:30 55.08413 23.87192 9380 ft 290 kts 348°
2026-05-04 15:30 55.14691 23.86208 11016 ft 326 kts 348°
2026-05-04 15:31 55.19358 23.85484 12143 ft 340 kts 349°
2026-05-04 15:31 55.21716 23.85116 12871 ft 343 kts 349°
2026-05-04 15:32 55.28984 23.83978 14689 ft 354 kts 349°
2026-05-04 15:32 55.33932 23.83202 15926 ft 359 kts 349°
2026-05-04 15:33 55.38967 23.82410 17115 ft 366 kts 348°
2026-05-04 15:34 55.46684 23.81264 18684 ft 377 kts 352°
2026-05-04 15:34 55.49315 23.81137 19127 ft 379 kts 352°
2026-05-04 15:34 55.54622 23.80829 20002 ft 383 kts 351°
2026-05-04 15:35 55.59952 23.80497 21110 ft 379 kts 351°
2026-05-04 15:35 55.62537 23.80334 21755 ft 376 kts 350°
2026-05-04 15:35 55.65164 23.80169 21876 ft 378 kts 350°
2026-05-04 15:36 55.70425 23.79838 21883 ft 378 kts 350°
2026-05-04 15:36 55.73050 23.79672 21881 ft 378 kts 350°
2026-05-04 15:36 55.75699 23.79502 21871 ft 387 kts 350°
2026-05-04 15:37 55.78418 23.79331 21875 ft 393 kts 350°
2026-05-04 15:37 55.81119 23.79164 21910 ft 381 kts 350°
2026-05-04 15:37 55.83721 23.79000 21850 ft 367 kts 349°
2026-05-04 15:37 55.86227 23.78840 21744 ft 354 kts 349°
2026-05-04 15:38 55.88636 23.78685 21525 ft 347 kts 349°
2026-05-04 15:38 55.91058 23.78529 21158 ft 350 kts 349°
2026-05-04 15:38 55.93505 23.78373 20774 ft 353 kts 349°
2026-05-04 15:38 55.95965 23.78216 20401 ft 353 kts 349°
2026-05-04 15:39 55.98417 23.78059 20022 ft 352 kts 349°
2026-05-04 15:39 56.00857 23.77902 19648 ft 351 kts 349°
2026-05-04 15:39 56.05737 23.77589 18872 ft 350 kts 350°
2026-05-04 15:40 56.08162 23.77433 18488 ft 348 kts 350°
2026-05-04 15:40 56.10576 23.77278 18098 ft 346 kts 350°
2026-05-04 15:40 56.12980 23.77122 17668 ft 343 kts 350°
2026-05-04 15:40 56.15341 23.76970 17277 ft 339 kts 350°
2026-05-04 15:41 56.17656 23.76820 16905 ft 335 kts 350°
2026-05-04 15:41 56.19973 23.76670 16530 ft 331 kts 350°
2026-05-04 15:41 56.22264 23.76522 16165 ft 328 kts 350°
2026-05-04 15:41 56.24543 23.76374 15800 ft 327 kts 350°
2026-05-04 15:42 56.26826 23.76225 15425 ft 329 kts 350°
2026-05-04 15:42 56.29115 23.76076 15051 ft 330 kts 350°
2026-05-04 15:42 56.31410 23.75927 14691 ft 329 kts 351°
2026-05-04 15:42 56.33698 23.75778 14314 ft 328 kts 351°
2026-05-04 15:43 56.35951 23.75438 13893 ft 319 kts 339°
2026-05-04 15:43 56.37894 23.73804 13411 ft 302 kts 315°
2026-05-04 15:43 56.39438 23.71327 13035 ft 294 kts 311°
2026-05-04 15:43 56.40917 23.68876 12671 ft 290 kts 310°
2026-05-04 15:44 56.42383 23.66397 12304 ft 286 kts 310°
2026-05-04 15:44 56.43823 23.63937 11940 ft 283 kts 310°
2026-05-04 15:44 56.45239 23.61495 11579 ft 279 kts 309°
2026-05-04 15:44 56.46637 23.59072 11221 ft 276 kts 309°
2026-05-04 15:45 56.48018 23.56672 10874 ft 276 kts 309°
2026-05-04 15:45 56.49407 23.54251 10505 ft 279 kts 309°
2026-05-04 15:45 56.50804 23.51815 10173 ft 279 kts 309°
2026-05-04 15:45 56.52181 23.49409 9992 ft 270 kts 309°
2026-05-04 15:46 56.53501 23.47087 9855 ft 259 kts 307°
2026-05-04 15:46 56.54703 23.44736 9692 ft 251 kts 305°
2026-05-04 15:46 56.55490 23.43186 9587 ft 253 kts 306°
2026-05-04 15:46 56.57076 23.40075 9375 ft 254 kts 306°
2026-05-04 15:47 56.58273 23.37732 9237 ft 253 kts 306°
2026-05-04 15:47 56.59481 23.35415 9074 ft 255 kts 311°
2026-05-04 15:47 56.61045 23.33771 8893 ft 265 kts 330°
2026-05-04 15:47 56.62200 23.32910 8792 ft 265 kts 329°
2026-05-04 15:48 56.63886 23.31640 8636 ft 265 kts 329°
2026-05-04 15:48 56.65601 23.30365 8475 ft 265 kts 329°
2026-05-04 15:48 56.69003 23.27855 8161 ft 263 kts 329°
2026-05-04 15:49 56.70730 23.26718 7986 ft 269 kts 341°
2026-05-04 15:49 56.72643 23.26801 7784 ft 286 kts
2026-05-04 15:49 56.74448 23.28474 7616 ft 299 kts 33°
2026-05-04 15:49 56.76049 23.30936 7464 ft 302 kts 35°
2026-05-04 15:50 56.77661 23.33384 7277 ft 300 kts 34°
2026-05-04 15:50 56.79265 23.35805 7085 ft 297 kts 34°
2026-05-04 15:50 56.80836 23.38174 6906 ft 289 kts 34°
2026-05-04 15:50 56.82351 23.40441 6696 ft 283 kts 34°
2026-05-04 15:51 56.83877 23.42722 6504 ft 284 kts 34°
2026-05-04 15:52 56.84526 23.43694 6434 ft 284 kts 34°
2026-05-04 15:52 56.85623 23.45337 6308 ft 284 kts 34°
2026-05-04 15:53 56.87128 23.47594 6143 ft 283 kts 34°
2026-05-04 15:53 56.88645 23.49871 5963 ft 281 kts 34°
2026-05-04 15:53 56.90159 23.52147 5795 ft 280 kts 34°
2026-05-04 15:53 56.91662 23.54406 5633 ft 279 kts 34°
2026-05-04 15:54 56.93152 23.56652 5474 ft 278 kts 34°
2026-05-04 15:54 56.94635 23.58888 5324 ft 272 kts 34°
2026-05-04 15:54 56.96073 23.61059 5232 ft 261 kts 34°
2026-05-04 15:54 56.97443 23.63127 5160 ft 250 kts 33°
2026-05-04 15:55 56.98794 23.65156 5065 ft 252 kts 31°
2026-05-04 15:55 57.00318 23.66458 4967 ft 234 kts
2026-05-04 15:55 57.01906 23.66873 5009 ft 236 kts 360°
2026-05-04 15:55 57.03531 23.67290 4990 ft 236 kts 359°
2026-05-04 15:56 57.05159 23.67690 4992 ft 235 kts 359°
2026-05-04 15:56 57.06784 23.68076 4988 ft 235 kts 359°
2026-05-04 15:56 57.08409 23.68458 4986 ft 235 kts 359°
2026-05-04 15:56 57.10035 23.68833 4983 ft 236 kts 359°
2026-05-04 15:57 57.11662 23.69208 4984 ft 235 kts 359°
2026-05-04 15:57 57.13279 23.69842 4865 ft 244 kts 19°
2026-05-04 15:57 57.14600 23.71859 4613 ft 253 kts 54°
2026-05-04 15:57 57.15169 23.74870 4448 ft 248 kts 88°
2026-05-04 15:58 57.15010 23.77892 4392 ft 233 kts 102°
2026-05-04 15:58 57.14737 23.80759 4327 ft 224 kts 103°
2026-05-04 15:58 57.14461 23.83601 4287 ft 226 kts 103°
2026-05-04 15:58 57.14180 23.86444 4248 ft 226 kts 103°
2026-05-04 15:59 57.13897 23.89290 4195 ft 225 kts 103°
2026-05-04 15:59 57.13611 23.92127 4140 ft 225 kts 104°
2026-05-04 15:59 57.13326 23.94946 4056 ft 222 kts 104°
2026-05-04 15:59 57.12815 23.97564 3736 ft 214 kts 134°
2026-05-04 16:00 57.11709 23.99112 3505 ft 191 kts 169°
2026-05-04 16:00 57.10430 23.99663 3311 ft 187 kts 180°
2026-05-04 16:00 57.09160 23.99798 3095 ft 179 kts 189°
2026-05-04 16:00 57.07928 23.99675 2872 ft 175 kts 191°
2026-05-04 16:01 57.06730 23.99487 2651 ft 175 kts 192°
2026-05-04 16:01 57.05515 23.99284 2427 ft 175 kts 192°
2026-05-04 16:01 57.04315 23.99087 2214 ft 169 kts 192°
2026-05-04 16:01 57.03168 23.98898 1989 ft 162 kts 192°
2026-05-04 16:02 57.02058 23.98717 1768 ft 158 kts 192°
2026-05-04 16:02 57.00967 23.98534 1553 ft 154 kts 192°
2026-05-04 16:02 56.98926 23.98200 1171 ft 146 kts 193°
2026-05-04 16:03 56.97916 23.98026 953 ft 146 kts 192°
2026-05-04 16:03 56.96902 23.97864 806 ft 144 kts 193°
2026-05-04 16:03 56.95916 23.97711 590 ft 139 kts 193°
2026-05-04 16:03 56.94964 23.97521 358 ft 136 kts 189°
2026-05-04 16:04 56.94016 23.97389 195 ft 137 kts 187°
2026-05-04 16:04 56.92340 23.97106 47 ft 70 kts 185°
2026-05-04 16:04 56.92027 23.97055 46 ft 25 kts 183°
2026-05-04 16:05 56.91873 23.97100 46 ft 16 kts 161°
2026-05-04 16:05 56.91789 23.97158 47 ft 8 kts 154°
2026-05-04 16:05 56.91714 23.97316 47 ft 1 kts 92°
2026-05-04 16:06 56.91714 23.97344 47 ft 2 kts 81°
2026-05-04 16:06 56.91801 23.97418 47 ft 9 kts
2026-05-04 16:07 56.91909 23.97435 47 ft 14 kts
2026-05-04 16:07 56.92212 23.97474 47 ft 17 kts
2026-05-04 16:08 56.92309 23.97491 46 ft 9 kts
2026-05-04 16:08 56.92350 23.97680 47 ft 9 kts 95°
2026-05-04 16:09 56.92338 23.97815 43 ft 1 kts 149°
2026-05-04 16:09 56.92307 23.97819 43 ft 3 kts 183°
2026-05-04 16:10 56.92290 23.97819 45 ft 0 kts 182°
2026-05-04 16:12 56.92291 23.97821 45 ft 0 kts 185°